Location: Erdweis
(48.5167°N, 15.3500°E)
Time: 10:07:51
(UTC+00:00)

Meteor 2-5 Rocket - Pass Details

Date: 18 September 2020
Orbit: 833 x 912 km, 81.2° (Epoch: 24 October)

Event Time Altitude Azimuth Distance (km) Brightness Sun altitude
Rises 18:37:53 0° 353° (N) 3,412 7.3 -15.9°
Reaches altitude 10° 18:40:27 10° 0° (N) 2,482 6.4 -16.3°
Maximum altitude 18:45:45 41° 71° (ENE) 1,228 4.2 -17.2°
Enters shadow 18:47:58 29° 118° (ESE) 1,532 4.4 -17.5°
